Voltar ao catálogo

STARLINK-35382

AtivoComunicaçõesVLEO
NORAD 66019·PAYLOAD·🇺🇸 United States

Lançado Oct 16, 2025 de Cape Canaveral Space Force Station

Loading…

Próximas Passagens (próximas 24 horas)

TLE

AtualizadoSource: CelesTrak SupGP

Época: Sep 14, 2026, 20:50 UTC

1 66019C 25232Q   26257.86854167 -.00004615  00000+0 -13639-3 0  2572
2 66019  53.1577 302.2551 0001244  69.7883 199.4825 15.34382645    12

Acompanhe STARLINK-35382 em tempo real com AllMySat

Download on the App Store